Weather History for LHPP - December, 2012

Change the Weather History Date:

Tuesday, December 4, 2012

  Actual Average Record
Temperature  
Mean Temperature 32 °F -  
Max Temperature 38 °F 38 °F - ()
Min Temperature 25 °F 28 °F - ()
Degree Days  
Heating Degree Days 34    
Moisture  
Dew Point 29 °F    
Average Humidity 89    
Maximum Humidity 100    
Minimum Humidity 58    
Precipitation  
Precipitation 0.24 in 0.06 in - ()
Sea Level Pressure  
Sea Level Pressure 29.71 in    
Wind  
Wind Speed 4 mph ()    
Max Wind Speed 9 mph    
Max Gust Speed -    
Visibility 3.8 miles    
Events Rain , Snow    
T = Trace of Precipitation, MM = Missing Value Source: Averaged Metar Reports

Daily Weather History Graph

Daily Weather History Graph

Search for Another Location

Airport or City:

Trip Planner

Search our weather history database for the weather conditions in past years. The results will help you decide how hot, cold, wet, or windy it might be!

Date:

Astronomy

Dec. 04, 2012 Rise Set
Actual Time 7:12 AM CET 4:02 PM CET
Civil Twilight 6:38 AM CET 4:36 PM CET
Nautical Twilight 6:00 AM CET 5:14 PM CET
Astronomical Twilight 5:24 AM CET 5:50 PM CET
Moon 9:43 PM CET (12/4) 10:47 AM CET (12/4)
Length of Visible Light 9h 58m
Length of Day
8h 50m
Waning Gibbous, 72% of the Moon is Illuminated
Dec 4
Waning Gibbous
Dec 6
Last Quarter
Dec 13
New
Dec 20
First Quarter
Dec 28
Full

Hourly Weather History & Observations

Time (CET) Temp. Windchill Dew Point Humidity Pressure Visibility Wind Dir Wind Speed Gust Speed Precip Events Conditions
12:45 AM 28.4 °F 24.6 °F 24.8 °F 86% 29.92 in - West 3.5 mph - N/A   Clear
1:00 AM 28 °F - 25 °F 84% 29.95 in 19 mi West 4.5 mph - -   Partly Cloudy
1:45 AM 26.6 °F - 24.8 °F 93% 29.89 in - West 2.3 mph - N/A   Clear
2:45 AM 26.6 °F - 24.8 °F 93% 29.89 in - Calm Calm - N/A   Clear
3:45 AM 28.4 °F 24.6 °F 26.6 °F 93% 29.86 in - South 3.5 mph - N/A   Clear
4:45 AM 28.4 °F 24.6 °F 24.8 °F 86% 29.83 in - SE 3.5 mph - N/A   Clear
5:15 AM 26.6 °F 21.2 °F 24.8 °F 93% 29.83 in - East 4.6 mph - N/A   Clear
5:45 AM 26.6 °F 21.2 °F 24.8 °F 93% 29.83 in - East 4.6 mph - N/A   Clear
6:00 AM - - - N/A% - - East 5.8 mph - N/A Rain Light Rain
6:15 AM 26.6 °F 20.0 °F 24.8 °F 93% 29.80 in - East 5.8 mph - N/A   Clear
6:45 AM 26.6 °F 20.0 °F 24.8 °F 93% 29.80 in - East 5.8 mph - N/A   Clear
7:00 AM 26 °F - 24 °F 90% 29.83 in 19 mi East 4.5 mph - -   Partly Cloudy
7:15 AM 26.6 °F 22.6 °F 24.8 °F 93% 29.77 in - ENE 3.5 mph - N/A   Clear
7:45 AM 26.6 °F 22.6 °F 24.8 °F 93% 29.77 in - ENE 3.5 mph - N/A   Clear
8:15 AM 28.4 °F 23.3 °F 26.6 °F 93% 29.77 in - East 4.6 mph - N/A   Clear
8:45 AM 30.2 °F 25.4 °F 28.4 °F 93% 29.77 in - ENE 4.6 mph - N/A   Clear
9:00 AM - - - N/A% - 4.3 mi East 5.8 mph - N/A Rain Light Rain
9:15 AM 30.2 °F 25.4 °F 28.4 °F 93% 29.77 in - ENE 4.6 mph - N/A   Clear
9:45 AM 32.0 °F 27.5 °F 28.4 °F 87% 29.77 in - East 4.6 mph - N/A   Clear
10:15 AM 33.8 °F 28.6 °F 28.4 °F 81% 29.74 in - East 5.8 mph - N/A   Clear
10:45 AM 35.6 °F 29.9 °F 28.4 °F 75% 29.74 in - ESE 6.9 mph - N/A   Clear
11:15 AM 35.6 °F 29.2 °F 28.4 °F 75% 29.71 in - SE 8.1 mph - N/A   Clear
11:45 AM 37.4 °F 32.8 °F 28.4 °F 70% 29.71 in - ESE 5.8 mph - N/A   Clear
12:00 PM - - - N/A% - 4.3 mi SE 9.2 mph - N/A Rain Light Rain
12:15 PM 37.4 °F 32.8 °F 28.4 °F 70% 29.68 in - SSE 5.8 mph - N/A   Clear
12:45 PM 37.4 °F 34.9 °F 28.4 °F 70% 29.68 in 6.2 mi South 3.5 mph - N/A Rain Light Rain
12:52 PM 37.4 °F - 30.2 °F 75% 29.68 in - North - - N/A   Unknown
1:00 PM 38 °F - 28 °F 58% 29.72 in 31 mi South 2.2 mph - - Rain Light Rain
1:15 PM 37.4 °F 33.8 °F 30.2 °F 75% 29.68 in 6.2 mi NE 4.6 mph - N/A Snow Light Snow
1:45 PM 35.6 °F 30.7 °F 30.2 °F 81% 29.68 in 4.3 mi East 5.8 mph - N/A Snow Light Snow
2:00 PM - - - N/A% - 3.1 mi SE 9.2 mph - N/A Rain Light Rain
2:15 PM 33.8 °F 28.6 °F 32.0 °F 93% 29.65 in 5.0 mi East 5.8 mph - N/A Snow Light Snow
2:22 PM 33.8 °F 28.6 °F 32.0 °F 93% 29.71 in 2.8 mi East 5.8 mph - N/A Snow Light Snow
2:27 PM 33.8 °F 27.7 °F 32.0 °F 93% 29.68 in 1.9 mi ESE 6.9 mph - N/A Snow Light Snow
2:40 PM 33.8 °F 28.6 °F 30.2 °F 87% 29.68 in 0.9 mi ESE 5.8 mph - N/A Snow Snow
2:45 PM 33.8 °F 27.7 °F 30.2 °F 87% 29.65 in 0.9 mi ESE 6.9 mph - N/A Snow Snow
2:58 PM 32.0 °F 25.6 °F 30.2 °F 93% 29.68 in 2.2 mi SE 6.9 mph - N/A Snow Light Snow
3:15 PM 32.0 °F 25.6 °F 30.2 °F 93% 29.65 in 2.2 mi ESE 6.9 mph - N/A Snow Light Snow
3:45 PM 32.0 °F 27.5 °F 30.2 °F 93% 29.65 in 2.2 mi East 4.6 mph - N/A Snow Light Snow
4:15 PM 32.0 °F 27.5 °F 30.2 °F 93% 29.62 in 2.2 mi ESE 4.6 mph - N/A Rain , Snow Light Rain
4:45 PM 32.0 °F 26.4 °F 32.0 °F 100% 29.62 in 2.2 mi ESE 5.8 mph - N/A Rain Light Rain
5:15 PM 32.0 °F 25.6 °F 32.0 °F 100% 29.62 in 2.5 mi ESE 6.9 mph - N/A Rain Light Rain
5:45 PM 32.0 °F - 32.0 °F 100% 29.62 in 2.5 mi East 2.3 mph - N/A Rain , Snow Light Rain
6:15 PM 32.0 °F 27.5 °F 32.0 °F 100% 29.62 in 2.5 mi ENE 4.6 mph - N/A Rain , Snow Light Rain
6:45 PM 32.0 °F 27.5 °F 32.0 °F 100% 29.59 in 2.5 mi East 4.6 mph - N/A Rain , Snow Light Rain
7:00 PM 32 °F - 31 °F 95% 29.64 in 2 mi East 4.5 mph - - Snow Light Snow
7:15 PM 32.0 °F 28.7 °F 32.0 °F 100% 29.59 in 2.5 mi ENE 3.5 mph - N/A Snow Light Snow
7:45 PM 32.0 °F 28.7 °F 30.2 °F 93% 29.59 in 2.5 mi East 3.5 mph - N/A Snow Light Snow
8:15 PM 32.0 °F 28.7 °F 30.2 °F 93% 29.56 in 1.9 mi ESE 3.5 mph - N/A Snow Light Snow
8:45 PM 32.0 °F 27.5 °F 30.2 °F 93% 29.56 in 1.9 mi SE 4.6 mph - N/A Snow Light Snow
9:45 PM 32.0 °F - 32.0 °F 100% 29.53 in 1.9 mi NNE 1.2 mph - N/A Snow Light Snow
10:45 PM 32.0 °F 28.7 °F 30.2 °F 93% 29.53 in 1.9 mi North 3.5 mph - N/A Rain , Snow Light Rain
11:45 PM 32.0 °F - 32.0 °F 100% 29.53 in 1.9 mi Calm Calm - N/A Rain , Snow Light Rain